Wind_Speed
13 9 6 5 1 1 4 5 2 9 6 7 9 2 2 3 4 4 4 26 37 34 30 25 20 16 14 14 18 22 21 21 21 21 22 22 19 16 10 9 12 15 17 18 21 20 19 18 19
14 8 7 3 3 5 9 4 11 15 16 16 13 10 3 2 3 3 18 22 37 33 29 25 21 18 15 14 19 25 23 23 22 24 23 20 16 10 10 14 16 18 19 20 20 18 18 18 18
12 8 4 4 4 12 13 6 11 15 21 8 10 9 5 4 3 14 9 27 36 33 28 25 21 19 16 13 20 25 23 22 20 21 19 14 11 12 16 18 19 19 20 20 19 17 17 17 17
9 8 5 4 8 11 4 8 2 9 15 23 7 7 9 9 6 7 19 31 35 32 28 24 21 19 15 16 19 20 22 22 19 18 15 12 12 17 19 21 21 20 20 19 17 16 15 15 16
13 8 7 6 15 3 2 8 19 10 14 22 8 7 17 11 3 10 26 32 33 31 27 24 21 17 15 18 20 17 19 22 20 17 15 15 19 20 21 21 21 20 18 17 16 15 13 12 11
6 8 6 12 20 3 6 17 6 15 21 26 12 13 12 15 8 19 27 31 30 30 26 23 20 16 17 19 18 17 19 20 20 20 20 21 21 21 21 21 20 18 17 16 14 13 11 9 7
3 4 13 11 16 5 6 21 9 13 21 18 29 6 8 16 16 23 28 30 30 28 26 24 20 16 20 23 19 16 18 19 20 21 21 22 21 20 20 19 18 17 16 14 13 11 9 7 5
4 3 8 14 9 8 8 20 5 14 19 16 26 11 9 18 17 28 28 29 28 26 24 22 18 17 21 23 23 17 17 17 18 19 20 20 19 18 18 17 16 15 13 12 10 10 8 5 2
3 6 12 13 10 7 9 11 15 5 20 19 33 25 25 18 23 23 29 28 26 25 23 20 16 18 19 19 23 21 17 16 16 17 18 18 18 16 15 14 13 12 11 9 9 8 7 5 3
6 9 15 3 5 4 15 8 10 7 13 10 24 14 23 18 22 12 22 27 26 25 22 19 17 18 17 16 19 23 21 18 16 15 16 15 15 14 13 13 12 10 9 8 7 6 5 4 3
4 13 15 11 19 10 8 8 8 6 7 17 32 30 29 23 22 9 18 21 27 24 22 19 17 17 14 12 16 21 22 20 17 15 14 14 14 14 12 11 10 9 8 7 6 5 6 5 4
6 11 15 18 17 7 6 13 10 10 4 19 37 41 41 35 34 34 33 23 22 22 21 20 15 13 13 9 12 17 20 20 18 16 14 14 13 12 11 10 9 8 7 7 6 5 5 5 3
9 11 9 24 12 12 15 10 11 8 4 14 28 38 46 36 38 37 30 33 26 21 23 21 17 14 11 9 9 13 16 18 18 17 14 13 12 11 10 9 8 8 8 6 6 5 5 4 4
7 19 17 11 17 7 11 6 7 4 3 17 31 36 38 42 47 39 36 42 37 27 25 20 18 14 12 9 8 9 12 16 16 16 14 13 11 11 9 9 9 8 7 7 6 6 5 5 4
16 4 11 15 13 7 12 8 6 11 2 15 26 30 39 37 38 43 45 42 41 35 28 11 17 12 13 12 10 11 11 14 14 13 13 12 11 12 10 10 10 8 8 8 7 7 6 5 5
8 6 3 10 11 8 8 9 2 10 4 7 15 27 30 36 38 41 41 44 43 33 30 32 27 12 22 20 14 13 13 13 13 13 12 12 12 11 12 11 9 9 10 9 8 7 6 5 5
7 4 6 5 13 7 6 9 7 16 5 8 7 17 27 22 22 28 31 35 37 36 28 23 30 29 30 20 23 19 15 17 18 16 16 14 14 12 12 13 11 11 11 10 8 7 5 4 6
7 7 6 6 8 12 7 12 17 19 10 5 6 7 17 32 33 27 28 29 31 40 35 30 28 31 24 36 28 18 17 20 22 23 21 20 18 16 12 12 14 12 13 11 8 6 6 9 10
5 4 7 3 12 6 9 8 14 18 8 6 3 5 9 13 21 24 25 26 28 32 30 34 32 26 24 34 30 25 28 33 32 30 25 22 21 21 12 12 14 13 10 7 7 9 11 11 11
11 9 10 14 13 5 6 6 12 11 6 4 2 3 6 10 11 16 22 24 28 33 33 30 33 33 35 30 34 35 37 34 33 31 26 27 27 22 18 14 13 12 10 10 11 12 11 12 14
5 13 9 9 10 4 5 4 4 6 9 12 8 7 5 6 10 10 10 17 26 28 30 31 32 35 34 34 31 34 38 35 34 35 31 31 28 26 24 24 21 19 15 13 15 16 16 17 19
6 9 13 18 9 4 2 2 4 4 11 6 11 9 8 9 10 9 9 9 9 19 25 25 25 29 29 32 35 38 33 36 38 38 36 34 30 29 29 29 26 19 14 14 18 19 20 23 23
3 13 12 10 5 5 4 2 4 3 8 9 7 14 15 16 14 14 12 9 9 10 12 20 21 23 23 26 28 31 35 35 36 33 34 33 31 28 29 27 24 19 17 19 20 17 23 21 20
12 15 7 3 2 3 4 2 5 2 6 2 6 20 22 22 21 17 16 17 18 16 14 16 16 18 20 22 23 25 25 25 26 25 27 31 32 31 26 17 14 19 17 17 16 16 18 18 16
7 5 3 3 3 2 1 1 6 3 7 3 8 15 21 24 21 20 21 21 17 19 21 24 19 16 16 18 20 21 23 22 23 23 24 24 26 25 16 13 12 11 13 13 14 16 18 16 17
4 3 3 4 3 2 5 3 4 2 8 4 1 2 4 12 17 17 18 21 19 19 17 22 23 24 22 20 20 20 19 22 23 25 24 24 24 22 12 7 7 15 21 20 18 18 18 17 17
4 4 2 6 4 4 1 5 6 4 6 8 12 17 16 14 9 6 4 8 14 16 17 17 20 21 22 21 19 19 18 19 21 23 24 22 21 17 14 16 19 19 21 22 17 17 17 17 18
3 1 2 3 4 2 1 3 3 8 7 6 8 13 12 10 8 6 3 3 7 13 17 21 19 21 20 19 17 16 16 16 15 16 18 18 17 17 13 14 12 13 13 13 13 15 17 19 21
5 3 4 5 4 3 2 3 3 6 6 3 6 11 13 13 12 10 8 6 5 3 9 15 15 15 18 18 17 16 15 13 12 10 14 14 14 14 14 13 10 10 13 19 24 24 24 21 21
2 2 3 4 1 2 2 3 2 4 2 6 7 10 9 10 9 9 10 12 11 6 2 7 10 13 15 15 16 15 13 12 13 15 16 16 15 15 16 16 17 22 23 26 24 24 24 22 19
Wind_Direction
247 251 240 224 149 133 212 231 5 165 269 360 338 336 200 65 168 209 178 169 170 166 166 165 165 163 158 149 151 150 142 139 141 144 144 146 148 148 143 139 131 124 124 121 116 117 111 107 101
236 245 242 197 198 193 227 196 201 185 223 339 10 344 11 15 8 139 152 164 168 165 164 162 162 161 159 153 154 158 147 140 138 138 142 143 144 143 140 133 129 128 126 122 120 117 111 109 106
234 232 217 167 201 227 224 190 208 196 200 297 337 354 345 358 7 155 178 163 166 165 163 162 162 161 161 155 152 162 158 153 147 149 148 149 143 140 134 131 130 129 126 124 121 119 112 109 110
227 214 237 188 221 241 208 217 115 116 187 240 356 298 326 344 178 175 164 167 166 163 162 161 163 161 164 153 149 160 167 165 160 159 159 163 147 137 134 133 133 132 131 130 126 123 115 106 103
217 193 237 217 239 260 242 266 177 164 162 209 270 266 314 329 192 183 166 168 166 162 161 162 163 163 167 160 161 161 161 168 170 172 170 158 144 138 136 136 135 133 134 134 132 127 118 108 97
212 198 234 219 225 236 240 234 181 175 174 174 228 280 275 296 189 163 168 167 167 160 161 162 164 166 168 157 150 151 148 152 155 156 153 147 142 140 139 138 138 139 140 140 138 133 126 116 107
217 188 214 242 238 250 229 241 205 188 179 177 197 227 264 247 194 177 172 171 167 161 164 165 167 171 166 158 152 155 148 145 146 148 147 146 145 143 140 139 140 143 144 143 144 145 142 139 127
245 263 218 224 248 247 236 241 229 183 184 192 173 187 234 225 208 178 172 167 165 164 166 168 171 175 169 166 158 159 151 149 146 148 148 148 147 146 146 144 144 144 143 143 143 150 157 158 145
253 242 231 215 219 234 251 237 238 194 152 166 177 175 203 204 275 149 161 161 167 167 171 171 169 166 168 169 170 164 161 165 155 152 152 154 154 153 153 151 149 149 150 152 155 160 168 177 195
207 225 233 222 211 233 246 275 226 165 176 170 173 167 185 168 187 187 163 163 170 170 171 175 171 173 178 174 175 175 170 176 177 164 157 157 159 160 162 161 161 163 166 171 177 181 184 192 204
209 236 229 227 221 285 311 292 287 186 199 185 180 166 177 182 190 178 193 181 178 176 178 177 179 184 181 180 181 182 183 183 183 178 172 171 173 173 174 174 176 180 184 190 194 196 198 196 201
259 249 246 247 229 264 292 312 286 206 192 203 191 182 165 174 175 168 179 193 183 185 185 181 182 185 183 182 185 188 191 192 194 189 188 187 187 190 189 190 198 202 205 205 196 185 181 185 194
237 246 253 238 220 238 273 269 270 269 214 196 183 178 176 181 193 181 175 195 206 193 197 190 183 179 186 191 185 194 199 201 203 202 203 200 196 191 199 212 209 205 205 200 195 195 193 203 215
235 225 252 269 234 242 287 277 272 254 303 191 181 182 174 180 186 184 182 202 193 199 188 191 184 180 191 196 210 202 204 206 207 210 211 212 207 210 215 221 214 207 206 205 208 210 216 219 233
260 271 226 236 224 227 349 276 229 314 206 153 188 188 181 181 183 182 180 199 191 188 183 172 228 206 218 207 210 215 214 205 208 208 208 214 222 223 231 223 223 218 218 217 219 223 224 235 264
206 246 210 194 171 208 90 266 1 344 143 101 165 186 192 188 189 193 192 189 184 181 188 204 216 294 241 222 220 211 213 213 209 207 214 222 226 232 239 238 233 227 229 230 225 227 238 266 291
176 193 196 143 183 128 154 278 358 351 38 85 110 168 182 198 193 199 204 193 195 189 192 177 198 214 210 230 225 215 221 229 228 230 229 233 233 233 251 245 239 238 239 238 234 240 260 299 311
166 193 179 183 160 182 232 281 299 314 349 48 96 137 171 187 195 197 194 199 205 206 211 205 193 189 197 218 223 216 233 241 230 233 232 233 234 238 247 245 234 238 237 236 241 260 277 279 290
285 157 125 158 148 115 223 256 265 295 332 351 92 135 147 171 189 194 197 204 204 217 208 202 213 207 220 220 213 213 239 234 234 230 230 230 235 234 239 234 223 227 229 238 243 256 264 274 276
196 148 138 110 121 99 187 240 282 315 321 299 287 174 144 147 167 183 195 206 211 210 218 221 218 215 222 222 221 225 227 237 240 244 241 236 235 232 231 214 214 209 219 236 253 258 265 274 281
167 154 152 131 144 163 151 259 232 281 314 273 257 238 212 168 169 169 197 215 209 209 222 222 221 223 232 231 232 234 238 243 246 247 251 241 236 233 229 228 223 218 222 234 248 264 270 272 276
162 173 137 127 182 90 331 291 249 299 308 258 250 241 242 214 204 201 202 206 210 216 220 227 225 234 240 240 236 234 241 248 253 252 253 243 236 237 235 236 232 224 232 252 268 271 272 279 280
126 142 125 102 91 121 0 38 296 64 304 266 269 248 231 229 222 221 222 224 231 228 223 228 229 235 235 238 243 240 240 247 251 251 249 244 242 242 237 235 225 228 245 251 268 270 279 283 283
123 94 76 86 199 72 162 67 318 173 233 204 243 246 234 225 230 244 248 249 250 247 242 244 245 241 233 239 239 247 253 252 260 260 249 252 252 246 244 216 230 251 250 264 264 267 272 278 283
77 52 52 37 41 118 96 100 229 263 260 282 274 271 251 236 236 248 254 254 257 247 250 247 245 252 242 242 245 249 251 255 261 259 255 249 249 245 217 248 267 282 287 282 284 283 283 287 290
28 58 143 132 136 60 71 256 264 323 319 312 87 344 157 211 230 241 253 253 250 251 251 246 244 248 250 247 253 255 257 255 257 261 263 257 245 245 243 232 279 302 300 298 292 291 292 293 292
270 64 181 102 42 73 257 293 311 6 36 46 69 72 74 90 113 149 187 235 251 252 246 243 246 247 247 250 253 253 255 258 261 262 260 247 237 228 226 236 252 246 257 273 287 293 291 293 291
117 144 112 355 103 91 310 274 260 351 348 18 31 45 57 67 69 61 32 330 267 254 252 237 247 248 247 249 252 256 263 269 270 266 233 236 241 241 239 234 228 232 238 266 284 294 297 296 291
355 15 40 118 72 130 111 305 231 274 283 9 35 49 53 56 59 52 33 15 351 298 232 225 240 240 242 250 257 264 268 267 263 230 221 229 223 214 214 222 230 256 273 282 291 295 299 290 287
1 57 54 102 319 63 105 293 22 304 50 83 66 50 43 42 38 40 33 25 26 10 324 229 221 222 230 240 249 252 254 245 227 206 198 202 214 225 231 242 251 266 263 278 279 279 282 281 285
Height
1500 1502 1503 1507 1514 1509 1510 1503 1492 1500 1507 1497 1492 1492 1492 1492 1494 1504 1490 1492 1499 1505 1509 1514 1518 1522 1524 1526 1527 1530 1532 1533 1535 1538 1540 1543 1545 1547 1547 1548 1549 1550 1551 1552 1554 1556 1557 1558 1559
1500 1501 1503 1503 1511 1511 1501 1495 1497 1495 1495 1492 1493 1492 1492 1494 1492 1492 1493 1494 1500 1506 1510 1514 1518 1522 1524 1526 1528 1531 1533 1535 1537 1539 1542 1544 1546 1548 1549 1550 1551 1552 1553 1555 1556 1558 1559 1560 1561
1498 1499 1502 1502 1505 1499 1493 1488 1486 1488 1488 1502 1499 1496 1495 1496 1494 1494 1494 1496 1501 1506 1511 1515 1518 1521 1525 1527 1529 1532 1535 1536 1538 1541 1543 1546 1547 1549 1550 1551 1553 1555 1556 1557 1558 1560 1561 1562 1563
1497 1496 1501 1500 1500 1488 1484 1483 1486 1490 1498 1502 1498 1504 1500 1496 1497 1496 1496 1498 1502 1506 1511 1516 1519 1522 1526 1528 1531 1533 1535 1538 1540 1543 1545 1547 1548 1550 1551 1553 1555 1556 1558 1559 1560 1562 1562 1563 1565
1494 1494 1496 1491 1489 1487 1485 1483 1484 1491 1491 1493 1507 1503 1499 1498 1497 1496 1498 1500 1504 1508 1512 1517 1520 1523 1527 1529 1532 1534 1536 1538 1541 1544 1546 1548 1549 1551 1553 1555 1557 1558 1559 1561 1562 1563 1564 1565 1566
1492 1491 1493 1487 1485 1484 1483 1481 1481 1482 1488 1492 1505 1505 1503 1498 1500 1498 1500 1501 1506 1509 1513 1517 1521 1524 1527 1530 1533 1535 1537 1540 1542 1544 1547 1549 1551 1553 1554 1556 1558 1560 1561 1562 1564 1564 1566 1566 1568
1488 1486 1484 1485 1484 1484 1480 1479 1477 1480 1481 1484 1487 1505 1499 1499 1499 1498 1499 1502 1506 1510 1514 1518 1521 1524 1527 1530 1533 1536 1538 1541 1543 1545 1547 1550 1553 1555 1557 1558 1560 1561 1563 1564 1565 1566 1567 1567 1568
1487 1484 1480 1482 1486 1483 1476 1476 1474 1473 1477 1481 1482 1490 1493 1498 1498 1498 1499 1502 1508 1511 1515 1519 1522 1525 1528 1531 1534 1537 1540 1542 1544 1546 1548 1551 1554 1557 1559 1560 1561 1563 1564 1566 1566 1567 1568 1568 1568
1485 1484 1475 1475 1485 1479 1475 1474 1472 1470 1471 1475 1475 1478 1485 1493 1485 1483 1496 1503 1508 1512 1516 1520 1523 1526 1529 1531 1534 1538 1541 1543 1546 1547 1549 1552 1555 1558 1560 1561 1563 1564 1565 1566 1567 1568 1568 1569 1569
1483 1478 1473 1472 1474 1476 1474 1475 1470 1469 1469 1470 1474 1474 1481 1488 1495 1496 1498 1504 1507 1512 1517 1521 1524 1527 1530 1532 1534 1537 1541 1544 1546 1548 1550 1553 1556 1558 1561 1562 1563 1565 1566 1567 1568 1568 1569 1569 1570
1478 1474 1472 1471 1473 1477 1476 1473 1471 1466 1468 1466 1468 1471 1476 1482 1494 1498 1504 1502 1507 1512 1516 1522 1525 1528 1530 1533 1535 1537 1540 1544 1547 1549 1551 1553 1556 1558 1561 1562 1564 1565 1566 1567 1568 1569 1569 1569 1570
1478 1472 1474 1474 1474 1473 1478 1472 1470 1463 1462 1463 1467 1466 1472 1482 1488 1486 1494 1505 1508 1512 1516 1522 1525 1528 1531 1533 1535 1538 1541 1543 1547 1549 1551 1553 1555 1558 1560 1562 1563 1564 1565 1566 1567 1568 1569 1569 1569
1474 1472 1470 1471 1473 1474 1478 1471 1472 1461 1458 1459 1463 1468 1470 1476 1482 1486 1487 1499 1504 1510 1517 1521 1524 1527 1531 1534 1536 1538 1541 1544 1547 1549 1551 1554 1555 1558 1560 1561 1562 1563 1564 1565 1566 1567 1568 1569 1569
1467 1470 1471 1469 1470 1475 1477 1471 1474 1460 1457 1457 1462 1464 1470 1468 1475 1483 1488 1494 1502 1509 1514 1518 1522 1527 1530 1534 1536 1538 1540 1543 1545 1548 1550 1553 1555 1557 1558 1560 1561 1562 1563 1564 1565 1566 1567 1567 1568
1468 1468 1469 1468 1470 1473 1470 1470 1465 1460 1455 1454 1458 1464 1467 1472 1477 1480 1485 1491 1499 1505 1509 1518 1525 1528 1530 1532 1535 1537 1539 1541 1543 1546 1549 1552 1554 1556 1556 1557 1559 1560 1562 1563 1564 1565 1566 1566 1567
1468 1468 1466 1462 1469 1475 1481 1473 1463 1460 1455 1454 1457 1463 1467 1469 1475 1482 1488 1493 1499 1503 1510 1519 1521 1522 1526 1533 1534 1536 1538 1539 1541 1543 1546 1549 1552 1554 1555 1556 1557 1558 1560 1561 1562 1563 1564 1565 1565
1463 1464 1464 1461 1464 1475 1484 1467 1466 1465 1458 1456 1458 1460 1467 1471 1477 1484 1489 1492 1497 1505 1511 1515 1518 1519 1524 1530 1532 1532 1535 1537 1539 1540 1542 1546 1548 1551 1552 1553 1555 1556 1558 1560 1561 1561 1562 1563 1564
1458 1460 1460 1460 1466 1474 1472 1477 1473 1472 1463 1458 1459 1461 1465 1470 1476 1480 1486 1491 1497 1501 1508 1514 1515 1519 1520 1522 1528 1527 1531 1535 1536 1537 1537 1539 1544 1547 1547 1549 1551 1553 1555 1557 1559 1560 1561 1561 1562
1456 1455 1455 1457 1464 1468 1479 1480 1479 1473 1464 1461 1460 1463 1465 1468 1473 1475 1483 1489 1494 1501 1504 1508 1513 1512 1516 1520 1519 1522 1525 1527 1530 1532 1535 1538 1541 1543 1543 1545 1547 1549 1552 1555 1555 1557 1558 1558 1559
1454 1454 1454 1459 1466 1474 1474 1476 1469 1460 1463 1464 1462 1464 1465 1467 1472 1475 1480 1488 1492 1496 1499 1502 1504 1508 1510 1511 1514 1516 1518 1525 1527 1530 1532 1536 1537 1539 1539 1541 1545 1545 1548 1552 1553 1554 1555 1556 1556
1450 1450 1454 1456 1465 1473 1471 1470 1471 1468 1463 1466 1465 1464 1466 1468 1471 1475 1482 1485 1489 1491 1494 1497 1500 1504 1507 1510 1513 1516 1520 1523 1525 1526 1526 1530 1534 1535 1535 1537 1541 1542 1543 1546 1549 1550 1550 1551 1552
1450 1447 1448 1454 1466 1463 1471 1476 1471 1468 1463 1465 1464 1463 1463 1467 1472 1476 1479 1483 1486 1490 1494 1499 1499 1502 1505 1508 1510 1511 1515 1518 1519 1523 1523 1527 1527 1529 1530 1533 1536 1537 1540 1540 1544 1544 1544 1546 1546
1446 1447 1451 1457 1462 1467 1474 1472 1465 1469 1468 1465 1460 1464 1466 1467 1471 1476 1480 1482 1485 1489 1492 1496 1498 1502 1504 1505 1507 1509 1509 1512 1515 1518 1520 1520 1522 1523 1526 1527 1527 1534 1538 1537 1539 1538 1538 1540 1541
1442 1449 1458 1465 1468 1478 1475 1473 1465 1467 1465 1456 1459 1462 1464 1467 1469 1473 1478 1481 1484 1487 1490 1493 1494 1497 1498 1502 1504 1504 1506 1508 1511 1511 1514 1515 1518 1519 1522 1521 1527 1532 1534 1534 1535 1536 1537 1536 1535
1446 1456 1476 1476 1474 1478 1473 1474 1466 1461 1459 1458 1458 1456 1459 1465 1469 1471 1473 1477 1480 1483 1484 1486 1489 1492 1494 1496 1498 1499 1503 1505 1506 1507 1509 1510 1514 1517 1510 1519 1526 1530 1531 1532 1532 1533 1534 1531 1530
1460 1459 1471 1466 1473 1475 1473 1478 1465 1458 1459 1459 1457 1457 1458 1462 1467 1470 1471 1472 1475 1477 1480 1482 1483 1486 1487 1490 1492 1495 1497 1500 1500 1503 1504 1507 1509 1512 1508 1519 1524 1526 1530 1529 1529 1530 1529 1528 1528
1462 1472 1462 1479 1485 1490 1485 1476 1462 1460 1461 1462 1461 1459 1460 1463 1467 1470 1472 1472 1470 1471 1474 1476 1479 1482 1484 1487 1489 1491 1494 1494 1495 1498 1499 1503 1505 1507 1512 1513 1514 1520 1525 1528 1526 1525 1525 1523 1523
1458 1461 1471 1481 1484 1479 1488 1482 1477 1470 1467 1465 1463 1463 1465 1465 1467 1468 1469 1469 1469 1470 1470 1472 1474 1476 1479 1482 1485 1488 1489 1490 1491 1493 1496 1498 1502 1504 1507 1510 1512 1515 1515 1521 1520 1520 1520 1520 1520
1466 1466 1469 1474 1485 1484 1488 1482 1474 1474 1472 1468 1467 1466 1465 1465 1465 1466 1468 1468 1468 1468 1468 1470 1471 1473 1476 1479 1482 1484 1485 1486 1488 1490 1494 1497 1500 1504 1505 1508 1511 1512 1512 1514 1514 1514 1513 1515 1515
1468 1469 1471 1483 1484 1507 1497 1486 1473 1472 1468 1466 1467 1466 1468 1466 1466 1468 1468 1468 1468 1468 1468 1470 1471 1473 1476 1479 1482 1482 1483 1485 1487 1488 1490 1493 1497 1501 1503 1505 1507 1509 1508 1507 1507 1508 1508 1509 1509